NOVA 2

Last updated on Sat Sep 05 2026 00:03:34 GMT+0000 (Coordinated Universal Time)

1 19223U 88052A 26247.52441757 .00000027 00000+0 43355-4 0 9998 2 19223 89.9784 77.8296 0030604 4.6384 11.8102 13.22963404844622
UTC large
Height (km)
Speed (km/s)
/
Latitude / Longitude
Inclination (degrees)
Orbital Period (minutes)
Azimuth
Elevation
Range (km)
Doppler Factor

Next 0 passes for location: London (51.5072 / 0.1276)

No passes found over London.
NOVA 2